Regional Weather Roundup
Issued by NWS Lake Charles, LA

Home | Current Version | Previous Version | Text Only | Print | Product List | Glossary On
Versions: 1 2 3 4 5 6 7 8 9 10 11 12 13 14 15 16 17 18 19 20 21 22 23 24 25 26 27
000
ASUS44 KLCH 251610
RWRLCH
REGIONAL WEATHER ROUNDUP
NATIONAL WEATHER SERVICE LAKE CHARLES LA
1100 AM CDT SUN JUN 25 2017

Note: "fair" indicates few or no clouds below 12,000 feet with no
significant weather and/or obstructions to visibility.


ACROSS SOUTHEAST TEXAS

CITY           SKY/WX    TMP DP  RH WIND       PRES   REMARKS
BEAUMONT       PTSUNNY   81  75  82 E5        30.15S
BEAUMONT CITY  PTSUNNY  N/A N/A N/A MISG      30.17S
ORANGE         CLOUDY    84  76  76 NE5       30.18S
JASPER         CLOUDY    77  73  86 NE6       30.22S FOG
$$

ACROSS CENTRAL LOUISIANA

CITY           SKY/WX    TMP DP  RH WIND       PRES   REMARKS
LEESVILLE      CLOUDY    78  71  77 NE6       30.20R
FULLERTON      FAIR      80  70  71 VRB5      30.18R
ALEXANDRIA INT CLOUDY    77  68  73 NE8       30.20R
ESLER FIELD    PTSUNNY   77  69  76 NE8       30.21R
DERIDDER       FAIR      80  74  82 E5        30.21S
OAKDALE        MOSUNNY   82  72  71 E5        30.19R
OPELOUSAS      PTSUNNY   81  74  79 NE7       30.18R
$$

ACROSS SOUTHWEST AND SOUTH CENTRAL LOUISIANA

CITY           SKY/WX    TMP DP  RH WIND       PRES   REMARKS
SULPHUR        CLOUDY    83  75  75 NE7       30.18R
LAKE CHARLES   PTSUNNY   83  78  85 E9        30.17R
CHENNAULT INT  CLOUDY    82  75  78 NE9       30.18
CAMERON PHI    NOT AVBL
DEQUINCY       FAIR      80  72  76 CALM      30.18S
JENNINGS       PTSUNNY  N/A N/A N/A NE6       30.18R
LAFAYETTE      CLOUDY    82  76  81 VRB6      30.17S
NEW IBERIA     CLOUDY    80  73  79 N6        30.17R HAZE
ABBEVILLE      NOT AVBL
PATTERSON      CLOUDY    84  77  79 N8        30.15S
SALT POINT       N/A     86  75  69 VRB5      30.13R
$$

SELECTED SITES ACROSS THE REGION

CITY           SKY/WX    TMP DP  RH WIND       PRES   REMARKS
HOUSTON BUSH   CLOUDY    79  74  84 NE10      30.17R
HOUSTON HOBBY  CLOUDY    83  73  72 NE10      30.15R
GALVESTON      RAIN      79  75  87 S9        30.15R FOG
COLLEGE STAT   CLOUDY    77  74  90 E14       30.17F
CONROE         CLOUDY    80  70  71 E8        30.18F
HUNTSVILLE     PTSUNNY   77  72  84 E5        30.20R
LUFKIN         CLOUDY    76  68  76 NE7       30.21R
SHREVEPORT     CLOUDY    74  65  73 E7        30.24R
MONROE         LGT RAIN  70  65  84 N6        30.25R
NATCHEZ MS     MOSUNNY   79  68  69 E8        30.22R
BATON ROUGE    MOSUNNY   84  71  65 NE9       30.16S
N.O. INTL ARPT CLOUDY    84  74  71 N9        30.15R
SLIDELL        MOSUNNY   86  74  67 NE7       30.14R
$$

MARINE REPORTS

STATION/POSITION TIME  SKY/WX   TEMP    WIND        PRES    VSBY
                                AIR SEA DIR/SP/G
                 (UTC)          (F)     (DEG/KT/KT) (MB)    (MI)
BUOY 30 S HIGH I 1450            83 84  120/ 10/ 12 1020.3
WVE H/P(F/S)=  2/ 7

SEA RIM ST PARK  1600            83     120/  7/  9 1021.5R
PORT ARTHUR      1548            80 84   80/  5/  7 1021.5R
SABINE PASS N    1548            82 86   60/  7/  8 1022.6R
TEXAS POINT      NOT AVBL
CALCASIEU PASS   1548            83 84   60/  8/ 10   N/A
LK CHARLES BEACH 1548            81 82              1022.2R
MARSH ISLAND     1500            81                   N/A
FRESH WATER LOCK 1548            83 88  360/  3/  6 1021.0R
AMERADA PASS     1548            83 82   80/  3/  5 1020.7R
$$




USA.gov is the U.S. government's official web portal to all federal, state and local government web resources and services.